Regional Weather Roundup
Issued by NWS

Home | Current Version | Previous Version | Text Only | Print | Product List | Glossary Off
Versions: 1 2 3 4 5 6 7 8 9 10 11 12 13 14 15 16 17 18 19 20 21 22 23 24 25 26 27 28 29 30 31 32 33 34 35 36 37 38 39 40 41 42 43 44 45 46 47 48 49 50

000
ASUS43 KLMK 260610
RWRKY
KENTUCKY REGIONAL WEATHER ROUNDUP
NATIONAL WEATHER SERVICE LOUISVILLE KY
200 AM EDT SAT JUL 26 2014

NOTE "FAIR" INDICATES FEW OR NO CLOUDS BELOW 12,000 FEET
WITH NO SIGNIFICANT WEATHER AND/OR OBSTRUCTIONS TO VISIBILITY.

KYZ001>023-026-027-061>063-070>075-260700-
WESTERN AND SOUTH CENTRAL KENTUCKY

CITY           SKY/WX    TMP DP  RH WIND       PRES   REMARKS
PADUCAH        CLEAR     68  63  84 CALM      29.99R
HENDERSON      CLEAR     61  55  82 CALM      30.01R
OWENSBORO      CLEAR     65  61  87 CALM      30.02R
HOPKINSVILLE   CLEAR     69  64  85 E2        30.01S
BOWLING GREEN  MOCLDY    73  61  65 S6        30.03R
GLASGOW        CLOUDY    67  60  78 CALM      30.03S
$$

KYZ024-025-028>034-038-045-046-053-260700-
NORTH CENTRAL KENTUCKY

CITY           SKY/WX    TMP DP  RH WIND       PRES   REMARKS
LOUISVILLE/SDF MOCLDY    72  61  68 SW5       30.01S
LOUISVILLE/LOU MOCLDY    72  60  66 S3        30.02S
FORT KNOX      MOCLDY    64  62  91 CALM      30.02R
$$

KYZ035>037-039>044-047>052-055>060-089>105-260700-
NORTHEAST KENTUCKY

CITY           SKY/WX    TMP DP  RH WIND       PRES   REMARKS
LEXINGTON      MOCLDY    67  61  81 SW5       30.04S
COVINGTON      CLOUDY    66  61  84 S5        30.02S
FRANKFORT      MOCLDY    69  60  73 CALM      30.02S
$$

KYZ054-064>069-076>088-106>120-260700-
SOUTHEAST KENTUCKY

CITY           SKY/WX    TMP DP  RH WIND       PRES   REMARKS
JACKSON        PTCLDY    65  59  81 CALM      30.05S
LONDON         PTCLDY    65  61  87 CALM      30.06S
SOMERSET       PTCLDY    61  61 100 CALM      30.05F
MIDDLESBORO    PTCLDY    63  62  97 CALM      30.07S
MONTICELLO     CLEAR     62  61  97 CALM      30.06F FOG
$$




USA.gov is the U.S. government's official web portal to all federal, state and local government web resources and services.